OPS 4682 DEB, 38431

Orbit data source: Space-Track

OPS 4682 DEB, 38431 is space debris in LEO originally from a launch on Sat, 03 Apr 1965 UTC launched from the Air Force Western Test Range (AFWTR). Debris objects in space refer to the collection of defunct objects orbiting the Earth. Examples of debris include non-operational satellites, rocket bodies, and fragments generated from explosions, collisions, or faulty payload assembly.

Loading next visibility...
Identifier
38431, 1965-027EL
Orbit
LEO
Country
Flag of USUS
Related business
Manufacturer
Unknown
Mission
Spacecraft
Bus & Motor
Unknown
Mass
Unknown
Launch date (UTC)
1965-04-03 (61 years ago)
Launch vehicle
Unknown
Launch site
Air Force Western Test Range (AFWTR)
Object type
Payload
Rocket body
Debris
Shape & HBR
Unknown shape, 0.1 m
Radar Cross Section
Medium (>0.1 m² and <1 m²)

Expand to show TLE details & history
Last TLE update: 2 days ago

TLE from 2 days ago
0 OPS 4682 DEB
1 38431U 65027EL  26262.26856344  .00000911  00000-0  29697-2 0  9991
2 38431  90.2395 359.5493 0021882 343.2880  16.7519 13.00732801676807
Epoch: 2026-09-19T06:26Z
TLE epoch observation values (Epoch: 2026-09-19T06:26:43.881Z)
Latitude
-0.00002°
Longitude
-95.31307°
Altitude
1,246.099 km
Speed
7.239 km/s
True Right ascension
23h 58m 11s
True Declination
0° 00' 00"
Sunlit
Object was in full shadow at epoch
Visualization orbit readout
Latitude
Unknown
Longitude
Unknown
Altitude
Unknown
Speed
Unknown
Apparent Right ascension
Unknown
Apparent Declination
Unknown
Sunlit
N/A
Visualization observer readout
Local Sidereal Time
20:50:35
Azimuth
Unknown
Elevation
Unknown
Doppler factor
Unknown
Orbital elements
Apogee altitude
1,273.048 km
Perigee altitude
1,239.637 km
Semi-major axis
7,634.48 km
Eccentricity
0.00219
Inclination
90.2395°
RAAN
359.5493°
Arg. of periapsis
343.288°
True anomaly
16.82436°
Mean anomaly
16.7519°
Eccentric anomaly
16.78811°
Mean motion
3.25367 °/min
Orbital period
110.64 mins
BSTAR
0.0029697
Loading maneuver chart data...
Computing Atmospheric mass density...
Loading historical data...
Loading historical data...
Loading historical data...
Loading historical data...
Loading historical data...
Loading historical data...
Loading historical data...

Documentation

Showing up to 5 results
|